Chatham, MA

5:49 AM EST on December 09, 2019 (GMT -0500)
Chatham Municipal

Weather History for KCQX - October, 2019

Change the Weather History Date:

Monday, October 14, 2019

  Actual Average Record
Temperature  
Mean Temperature 58 °F -  
Max Temperature 63 °F 58 °F 75 °F (1990)
Min Temperature 55 °F 44 °F 36 °F (1988)
Degree Days  
Heating Degree Days 6    
Growing Degree Days 8 (Base 50)    
Moisture  
Dew Point 57 °F    
Average Humidity 96    
Maximum Humidity 100    
Minimum Humidity 93    
Precipitation  
Precipitation 0.16 in - - ()
Sea Level Pressure  
Sea Level Pressure 29.98 in    
Wind  
Wind Speed 4 mph (SE)    
Max Wind Speed 8 mph    
Max Gust Speed -    
Visibility 8 miles    
Events Rain    
Averages and records for this station are not official NWS values.
T = Trace of Precipitation, MM = Missing Value Source: NWS Daily Summary

Daily Weather History Graph

Daily Weather History Graph

Search for Another Location

Airport or City:

Astronomy

Oct. 14, 2019 Rise Set
Actual Time 6:50 AM EDT 6:00 PM EDT
Civil Twilight 6:22 AM EDT 6:28 PM EDT
Nautical Twilight 5:50 AM EDT 7:00 PM EDT
Astronomical Twilight 5:18 AM EDT 7:32 PM EDT
Moon 6:49 PM EDT (10/14) 7:18 AM EDT (10/14)
Length of Visible Light 12h 05m
Length of Day
11h 09m
Waxing Gibbous, 99% of the Moon is Illuminated
Oct 14
Waxing Gibbous
Oct 21
Last Quarter
Oct 27
New
Nov 4
First Quarter
Nov 12
Full

Hourly Weather History & Observations

Time (EDT) Temp. Dew Point Humidity Pressure Visibility Wind Dir Wind Speed Gust Speed Precip Events Conditions
12:52 AM 55.0 °F 54.0 °F 96% 30.07 in 8.0 mi Calm Calm - N/A   Partly Cloudy
1:52 AM 55.9 °F 55.0 °F 97% 30.08 in 10.0 mi Calm Calm - N/A   Scattered Clouds
2:52 AM 57.0 °F 55.0 °F 93% 30.05 in 10.0 mi South 3.5 mph - N/A   Overcast
3:52 AM 55.9 °F 55.0 °F 97% 30.03 in 10.0 mi SSE 3.5 mph - N/A   Overcast
4:52 AM 57.0 °F 55.0 °F 93% 30.02 in 10.0 mi SSE 3.5 mph - 0.01 in Rain Light Rain
5:52 AM 57.0 °F 55.9 °F 96% 30.03 in 10.0 mi South 4.6 mph - 0.00 in Rain Light Rain
6:41 AM 57.0 °F 55.9 °F 96% 30.02 in 9.0 mi Calm Calm - 0.01 in Rain Light Rain
6:52 AM 57.0 °F 55.9 °F 96% 30.03 in 6.0 mi Calm Calm - 0.02 in Rain Light Rain
7:33 AM 57.0 °F 55.9 °F 96% 30.02 in 5.0 mi SE 3.5 mph - 0.04 in Rain Light Rain
7:52 AM 57.0 °F 55.9 °F 96% 30.03 in 8.0 mi South 5.8 mph - 0.05 in Rain Light Rain
8:52 AM 57.0 °F 55.9 °F 96% 30.04 in 7.0 mi SE 3.5 mph - 0.04 in Rain Light Rain
9:52 AM 57.0 °F 55.9 °F 96% 30.02 in 10.0 mi ESE 6.9 mph - 0.00 in Rain Light Rain
10:13 AM 57.9 °F 55.9 °F 93% 30.01 in 8.0 mi ESE 8.1 mph - 0.01 in Rain Light Rain
10:22 AM 57.9 °F 55.9 °F 93% 30.02 in 3.0 mi ESE 8.1 mph - 0.02 in Rain Light Rain
10:35 AM 57.0 °F 55.9 °F 96% 30.01 in 2.5 mi East 6.9 mph - 0.03 in Rain Light Rain
10:42 AM 57.0 °F 55.9 °F 96% 30.00 in 8.0 mi East 6.9 mph - 0.03 in   Overcast
10:52 AM 57.9 °F 57.0 °F 97% 30.01 in 9.0 mi East 5.8 mph - 0.03 in Rain Light Rain
11:01 AM 57.9 °F 57.0 °F 97% 30.00 in 10.0 mi ENE 8.1 mph - 0.00 in Rain Light Rain
11:22 AM 57.9 °F 57.0 °F 97% 29.99 in 10.0 mi ENE 8.1 mph - 0.00 in   Overcast
11:52 AM 57.9 °F 57.0 °F 97% 29.99 in 4.0 mi East 6.9 mph - 0.00 in Rain Light Rain
12:35 PM 57.9 °F 57.0 °F 97% 29.96 in 2.5 mi East 8.1 mph - 0.01 in   Overcast
12:49 PM 59.0 °F 57.2 °F 94% 29.95 in 6.0 mi East 8.1 mph - 0.01 in   Overcast
12:52 PM 57.9 °F 57.9 °F 100% 29.95 in 7.0 mi East 8.1 mph - 0.01 in   Overcast
1:52 PM 59.0 °F 59.0 °F 100% 29.93 in 6.0 mi ENE 3.5 mph - N/A   Overcast
2:45 PM 61.0 °F 60.1 °F 97% 29.90 in 2.5 mi Calm Calm - N/A   Overcast
2:52 PM 62.1 °F 61.0 °F 96% 29.91 in 2.5 mi Calm Calm - N/A   Overcast
3:29 PM 62.1 °F 61.0 °F 96% 29.90 in 3.0 mi Calm Calm - N/A   Overcast
3:52 PM 62.1 °F 61.0 °F 96% 29.91 in 7.0 mi Variable 4.6 mph - N/A   Overcast
4:52 PM 62.1 °F 61.0 °F 96% 29.91 in 9.0 mi Variable 3.5 mph - N/A   Overcast
5:10 PM 62.1 °F 60.1 °F 93% 29.92 in 10.0 mi Calm Calm - N/A   Overcast
5:48 PM 60.8 °F 59.0 °F 94% 29.92 in 10.0 mi Variable 5.8 mph - N/A   Overcast
5:52 PM 60.1 °F 59.0 °F 96% 29.93 in 10.0 mi Variable 4.6 mph - N/A   Overcast
6:48 PM 59.0 °F 59.0 °F 100% 29.94 in 10.0 mi WSW 4.6 mph - N/A   Overcast
6:52 PM 60.1 °F 59.0 °F 96% 29.94 in 10.0 mi Variable 4.6 mph - N/A   Overcast
7:21 PM 59.0 °F 57.9 °F 96% 29.95 in 10.0 mi WSW 6.9 mph - N/A   Overcast
7:52 PM 59.0 °F 57.9 °F 96% 29.96 in 10.0 mi WSW 4.6 mph - N/A   Overcast
8:05 PM 59.0 °F 57.9 °F 96% 29.95 in 10.0 mi West 5.8 mph - N/A   Overcast
8:45 PM 57.9 °F 57.0 °F 97% 29.96 in 10.0 mi SW 4.6 mph - N/A   Scattered Clouds
8:52 PM 57.9 °F 55.9 °F 93% 29.97 in 10.0 mi SW 4.6 mph - N/A   Partly Cloudy
9:42 PM 57.0 °F 55.9 °F 96% 29.97 in 10.0 mi Variable 4.6 mph - N/A   Scattered Clouds
9:52 PM 57.0 °F 55.9 °F 96% 29.98 in 10.0 mi WSW 4.6 mph - N/A   Scattered Clouds
10:52 PM 57.0 °F 55.9 °F 96% 29.99 in 10.0 mi Variable 6.9 mph - N/A   Scattered Clouds
11:03 PM 57.9 °F 57.0 °F 97% 29.98 in 10.0 mi SW 6.9 mph - N/A   Mostly Cloudy
11:27 PM 57.9 °F 57.0 °F 97% 29.98 in 10.0 mi WSW 5.8 mph - N/A   Scattered Clouds
11:52 PM 57.0 °F 55.9 °F 96% 29.99 in 10.0 mi Variable 4.6 mph - N/A   Clear